Regional Weather Roundup
Issued by NWS

Home | Current Version | Previous Version | Text Only | Print | Product List | Glossary On
Versions: 1 2 3 4 5 6 7 8 9 10 11 12 13 14 15 16 17 18 19 20 21 22 23 24 25 26 27 28 29 30 31 32 33 34 35 36 37 38 39 40 41 42 43 44 45 46 47 48 49 50
000
ASUS46 KSEW 020410
RWRWA

WASHINGTON REGIONAL WEATHER ROUNDUP
NATIONAL WEATHER SERVICE SEATTLE WA
900 PM PDT MON SEP 01 2014

NOTE:"FAIR" INDICATES FEW OR NO CLOUDS BELOW 12,000 FEET WITH NO
SIGNIFICANT WEATHER AND/OR OBSTRUCTIONS TO VISIBILITY.

WAZ505-507>509-020500-
SEATTLE, TACOMA, EVERETT, AND VICINITY

CITY           SKY/WX    TMP DP  RH WIND       PRES   REMARKS
EVERETT        PTCLDY    61  54  77 N6        30.01S
BOEING FIELD   MOCLDY    68  52  56 N9        29.99R
RENTON         CLOUDY    69  56  62 NW9       29.98R
SEATAC AIRPORT MOCLDY    67  55  65 W5        30.00S
JBLM-MCCHORD   CLEAR     67  58  72 NE7       30.00R
PUYALLUP       NOT AVBL
JBLM-FT LEWIS  DRIZZLE   66  58  75 W8        29.99S
TACOMA NARROWS PTCLDY    66  56  70 SW5       29.99S
$$

WAZ001-503-506-510-514-515-020500-
NORTH INTERIOR

CITY           SKY/WX    TMP DP  RH WIND       PRES   REMARKS
BELLINGHAM     CLOUDY    64  55  72 CALM      29.99S
FRIDAY HARBOR  CLOUDY    62  54  74 SW5       30.00S
EASTSOUND      MOCLDY    63  55  77 MISG      29.97S
PORT ANGELES   CLOUDY    61  56  83 W8        30.02S
NAS WHIDBEY    CLOUDY    61  54  77 SW5       30.01S
BURLINGTON     MOCLDY    64  55  72 CALM      30.01S
$$

WAZ020-022-039-040-504-511-512-020500-
SOUTHWEST INTERIOR

CITY           SKY/WX    TMP DP  RH WIND       PRES   REMARKS
SHELTON        PTCLDY    61  57  87 SW9       29.98R
OLYMPIA        CLEAR     63  56  78 CALM      30.00R
CHEHALIS       FAIR      66  59  77 CALM      30.01R
KELSO          PTCLDY    66  57  72 CALM      30.03R
VANCOUVER      CLEAR     71  55  56 NW8       29.96S
SCAPPOOSE, OR  CLEAR     68  57  68 N6        29.97S
PORTLAND, OR   PTCLDY    71  57  61 NW7       29.97S
$$

WAZ021-516-517-020500-
WASHINGTON COAST

CITY           SKY/WX    TMP DP  RH WIND       PRES   REMARKS
FORKS          PTCLDY    59  57  93 CALM      30.04S
HOQUIAM        PTCLDY    63  59  87 W6        30.02F
ASTORIA, OR    MOCLDY    64  60  87 NW10      30.01S
$$

WAZ019-023-024-040-518-519-020500-
CASCADE MOUNTAINS AND COLUMBIA GORGE

CITY           SKY/WX    TMP DP  RH WIND       PRES   REMARKS
STAMPEDE PASS  PTCLDY    49  46  90 VRB3      30.07S
TROUTDALE, OR  CLEAR     73  55  53 NW5       29.95S
THE DALLES, OR CLEAR     74  52  46 W14       29.91R
$$

WAZ026-027-041>044-520-521-020500-
EAST SLOPES

CITY           SKY/WX    TMP DP  RH WIND       PRES   REMARKS
OMAK           CLEAR     66  39  37 E5        29.88R
WENATCHEE      CLEAR     70  40  33 NW13      29.92R
ELLENSBURG     CLEAR     65  47  52 NW18G28   29.95S
YAKIMA         CLEAR     71  48  43 N12       29.93S
$$

WAZ028-034-035-020500-
COLUMBIA BASIN

CITY           SKY/WX    TMP DP  RH WIND       PRES   REMARKS
EPHRATA        CLEAR     72  39  30 NE7       29.90S
MOSES LAKE     CLEAR     70  50  49 SW8       29.90F
PASCO          CLEAR     71  49  45 E5        29.89S
HERMISTON, OR  CLEAR     66  47  50 S8        29.89S
$$

WAZ036>038-020500-
NORTHEAST WASHINGTON

CITY           SKY/WX    TMP DP  RH WIND       PRES   REMARKS
SPOKANE GEIGER PTCLDY    64  39  39 S6        29.96S
SPOKANE FELTS  CLEAR     61  38  42 N3        29.96R
FAIRCHILD AFB  CLEAR     60  40  46 S6        29.96F
COEURDALENE,ID CLEAR     61  39  44 S8        29.96S
DEER PARK      CLEAR     59  38  45 S7        29.95S
$$

WAZ029>033-020500-
SOUTHEAST WASHINGTON

CITY           SKY/WX    TMP DP  RH WIND       PRES   REMARKS
PULLMAN        CLEAR     55  38  52 CALM      30.00S
LEWISTON, ID   CLEAR     72  41  32 CALM      29.95R
WALLA WALLA    CLEAR     67  43  41 E8        29.94S
PENDLETON, OR  CLEAR     64  39  39 E9        29.94R
$$



USA.gov is the U.S. government's official web portal to all federal, state and local government web resources and services.